User: anonymous   Login
Location: Bad Salzschlirf
(50.3750°N, 9.3000°E)
Time: 17:59:19
(UTC+02:00)
Language:

ISS - Orbit

View from above orbital plane
View from above orbital plane
View from above satellite
View from above satellite

Ground track
Ground track

The orbit data is extracted from the following two-line orbital elements,

1 25544U 98067A   18296.50289564  .00016717  00000-0  10270-3 0  9046
2 25544  51.6368  99.2859 0003832 323.8502  36.2391 15.53852748 18463
Epoch (UTC): 23 October 2018 12:04:10
Eccentricity: 0.0003832
inclination: 51.6368°
perigee height: 403 km
apogee height: 408 km
right ascension of ascending node: 99.2859°
argument of perigee: 323.8502°
revolutions per day: 15.53852748
mean anomaly at epoch: 36.2391°
orbit number at epoch: 1846

The dashed part of the orbit path shows where the satellite is in the earth's shadow,  

DLR